sat.trackr.live / text

‹ back to catalog

STARLINK-11564 [DTC]

NORAD 62913 · 2025-027G

PAYLOAD ACTIVE UNKNOWN

§ Identity

Operator
Country
US
Launch date
2025-02-08
Launch site
AFETR
Launch vehicle
Mass (kg)
RCS (m²)

Purposes: comms

External: N2YO · Heavens-Above · Gunter

§ Orbital elements

Epoch: 2026-09-21T16:13:18.932448Z

Period
91.67 min
Inclination
42.9991°
Eccentricity
0.0000778
Mean motion
15.70866799 rev/d
Perigee alt
355.9 km
Apogee alt
356.9 km
Semi-major
6,734.6 km
B*
1.1865e-3
RAAN
246.5060°
Arg perigee
56.3551°
Mean anomaly
303.7390°
Rev number
9,397

§ Raw data

STARLINK-11564 [DTC]1 62913U 25027G   26264.67591357  .00154833  00000+0  11865-2 0  99962 62913  42.9991 246.5060 0000778  56.3551 303.7390 15.70866799 93978

JSON: /api/v1/satellites/62913 · /tle

For live sub-satellite position, see the globe view (requires WebGL).

§ Visibility from observer

Set your observer location to see the next 7 days of passes ≥ 10°. The values pass through the URL so the page stays shareable.

No JS? Fill the form by hand. The geolocation button needs JavaScript.